Miscellaneous Local Product
Issued by NWS Hastings, NE

Home | Current Version | Previous Version | Graphics & Text | Print | Product List | Glossary On
Versions: 1 2 3 4 5 6 7 8 9 10 11 12 13 14 15 16 17 18 19 20 21 22 23 24 25 26 27 28 29 30 31 32 33 34 35 36 37 38 39 40 41 42 43 44 45 46 47 48 49 50
000
AXUS43 KGID 290502
MISGRI

GID CWA HOURLY WEATHER ROUNDUP
NATIONAL WEATHER SERVICE HASTINGS NE
1100 PM CST WED JAN 28 2015

NOTE: "FAIR" INDICATES FEW OR NO CLOUDS BELOW 12,000 FEET WITH NO
SIGNIFICANT WEATHER AND/OR OBSTRUCTIONS TO VISIBILITY.

...SOUTH CENTRAL NEBRASKA...

CITY           SKY/WX    TMP DP  RH WIND       PRES   REMARKS
GRAND ISLAND   MOCLDY    46  34  62 N29G41    30.01R
HASTINGS       PTCLDY    47  32  56 N15       30.00R
KEARNEY        CLEAR     46  30  53 NW28G37   30.04R
ORD            CLOUDY    39  31  72 N31G41    30.08R WCI  27
YORK           CLOUDY    46  36  66 N24G37    29.95R
AURORA         CLOUDY    47  34  60 N22G30    29.99R
LEXINGTON      CLEAR     46  33  59 NW22G30   30.10R
HOLDREGE       CLEAR     45  29  52 NW14      30.04R
HEBRON         PTCLDY    53  30  41 NW17G24   29.95R

...NEBRASKA PANHANDLE...

CITY           SKY/WX    TMP DP  RH WIND       PRES   REMARKS
CHADRON        MOCLDY    31  27  85 NE6       30.29R WCI  25
ALLIANCE       CLEAR     34  28  79 N13       30.26R WCI  25
SCOTTSBLUFF    CLOUDY    40  30  67 W9        30.27R WCI  34
SIDNEY         CLOUDY    40  29  64 NW15      30.25R WCI  32

...WESTERN AND NORTH CENTRAL NEBRASKA...

CITY           SKY/WX    TMP DP  RH WIND       PRES   REMARKS
VALENTINE      CLOUDY    36  29  75 N30G41    30.20R WCI  23
AINSWORTH      CLOUDY    34  30  83 NW33G41   30.17R WCI  20
ONEILL         CLOUDY    36  32  85 NW39G45   30.09R WCI  21
BROKEN BOW     CLOUDY    41  32  70 N37G46    30.12R
IMPERIAL       CLEAR     42  33  70 NW17      30.18R
NORTH PLATTE   CLEAR     41  32  70 NW16G23   30.17R
MCCOOK         CLEAR     43  32  65 NW17      30.13R

...EASTERN NEBRASKA...

CITY           SKY/WX    TMP DP  RH WIND       PRES   REMARKS
NORFOLK        CLOUDY    38  32  79 NW29G43   30.00R WCI  26
SO SIOUX CITY  FLURRIES  37  33  85 NW39G53   29.94R WCI  23
TEKAMAH        CLOUDY    43  36  76 N28G37    29.93R
COLUMBUS       CLOUDY    43  30  61 NW30G46   29.99R
ALBION         CLOUDY    39  31  73 NW37G43   30.02R WCI  26
OMAHA EPPLEY   CLOUDY    45  36  70 N32G45    29.89R
OFFUTT AFB     CLOUDY    46  37  71 NW26G43   29.88R
MILLARD        CLOUDY    47  39  73 NW18G26   29.89R
LINCOLN        MOCLDY    49  35  58 N21       29.92R
NEBRASKA CITY  PTCLDY    46  34  61 N31G41    29.88R
BEATRICE       MOCLDY    52  34  51 N30G38    29.91R
FALLS CITY     PTCLDY    49  36  61 NW17G24   29.86R

...NORTHERN KANSAS...

CITY           SKY/WX    TMP DP  RH WIND       PRES   REMARKS
GOODLAND       CLEAR     40  35  83 NW14      30.21R WCI  32
HILL CITY      CLEAR     49  32  52 NW15      30.11R
NORTON         CLEAR     45  30  57 W14       30.09R
PHILLIPSBURG   CLEAR     52  34  50 W14G22    30.07R
SMITH CENTER   CLEAR     46  30  53 W18       30.05R
BELOIT         CLEAR     48  28  46 W10       30.00R
HAYS           CLEAR     52  27  37 NW14      30.08R
RUSSELL        CLEAR     52  30  43 NW18      30.03R
CONCORDIA      PTCLDY    51  30  44 NW12      29.97R
SALINA         CLEAR     51  30  44 W10       29.99R
TOPEKA         CLEAR     56  34  43 NW15G26   29.88R



USA.gov is the U.S. government's official web portal to all federal, state and local government web resources and services.